P/2000 OZ21 ( LONEOS-PanSTARRS )

Japanese version
Home page
Updated on October 9, 2022

---------------------------------------------------------------------

* Profile

Discovery Date July 29, 2000
Magnitude 18.4 mag
Discoverer Lowell Observatory Near-Earth Object Search

* Orbital Elements

                    Epoch = 2000 Sept.13.0 TT
     T = 2000 Sept. 8.47012 TT        Peri. = 348.31385
     e = 0.5784070                    Node  = 340.12424 2000.0
     q = 2.0886709 AU                 Incl. =   5.60581
       a =  4.9542353 AU   n = 0.08937975   P =  11.03 years

* Magnitudes Graph

        m1 = 16.5 + 5 log d + 10.0 log r

---------------------------------------------------------------------

The orbital elements are printed on CBET 5166.
The magnitudes graphs are made with Comet for Windows.

---------------------------------------------------------------------

Copyright(C) Seiichi Yoshida (comet@aerith.net). All rights reserved.